TimeICT,TemperatureF,Dew PointF,Humidity,Sea Level PressureIn,VisibilityMPH,Wind Direction,Wind SpeedMPH,Gust SpeedMPH,PrecipitationIn,Events,Conditions,WindDirDegrees,DateUTC
12:00 AM,75.2,71.6,89,29.95,6.2,Calm,Calm,-,N/A,,Partly Cloudy,0,2012-10-13 17:00:00
12:30 AM,75.2,71.6,89,29.95,6.2,Calm,Calm,-,N/A,,Partly Cloudy,0,2012-10-13 17:30:00
1:00 AM,76,73,88,29.89,6,Calm,Calm,,,,Mostly Cloudy,,2012-10-13 18:00:00
1:00 AM,77.0,71.6,83,29.95,6.2,NNE,3.5,-,N/A,,Partly Cloudy,30,2012-10-13 18:00:00
1:30 AM,75.2,71.6,89,29.95,6.2,Calm,Calm,-,N/A,,Partly Cloudy,0,2012-10-13 18:30:00
2:00 AM,75.2,71.6,89,29.92,6.2,Calm,Calm,-,N/A,,Partly Cloudy,0,2012-10-13 19:00:00
2:30 AM,75.2,71.6,89,29.92,6.2,WNW,2.3,-,N/A,,Partly Cloudy,290,2012-10-13 19:30:00
3:00 AM,75.2,71.6,89,29.92,6.2,WSW,2.3,-,N/A,,Scattered Clouds,250,2012-10-13 20:00:00
3:30 AM,75.2,71.6,89,29.92,6.2,Calm,Calm,-,N/A,,Scattered Clouds,0,2012-10-13 20:30:00
4:00 AM,75.2,71.6,89,29.92,6.2,Calm,Calm,-,N/A,,Scattered Clouds,0,2012-10-13 21:00:00
4:30 AM,75.2,71.6,89,29.92,6.2,Calm,Calm,-,N/A,,Scattered Clouds,0,2012-10-13 21:30:00
5:00 AM,75.2,71.6,89,29.92,6.2,Calm,Calm,-,N/A,,Scattered Clouds,0,2012-10-13 22:00:00
5:30 AM,75.2,71.6,89,29.92,6.2,Calm,Calm,-,N/A,,Scattered Clouds,0,2012-10-13 22:30:00
6:00 AM,75.2,71.6,89,29.95,6.2,Calm,Calm,-,N/A,,Scattered Clouds,0,2012-10-13 23:00:00
6:30 AM,75.2,69.8,83,29.95,6.2,Calm,Calm,-,N/A,,Scattered Clouds,0,2012-10-13 23:30:00
7:00 AM,75,72,87,29.91,5,Calm,Calm,,,,Mist,,2012-10-14 00:00:00
7:00 AM,75.2,71.6,89,29.95,6.2,Calm,Calm,-,N/A,,Scattered Clouds,0,2012-10-14 00:00:00
7:30 AM,75.2,71.6,89,29.98,6.2,NW,2.3,-,N/A,,Scattered Clouds,310,2012-10-14 00:30:00
8:00 AM,75.2,71.6,89,29.98,6.2,West,1.2,-,N/A,,Scattered Clouds,280,2012-10-14 01:00:00
8:30 AM,77.0,71.6,83,29.98,6.2,Calm,Calm,-,N/A,,Scattered Clouds,0,2012-10-14 01:30:00
9:00 AM,77.0,71.6,83,29.98,6.2,SSW,3.5,-,N/A,,Scattered Clouds,200,2012-10-14 02:00:00
9:30 AM,80.6,69.8,70,30.01,6.2,ESE,2.3,-,N/A,,Scattered Clouds,120,2012-10-14 02:30:00
10:00 AM,82.4,71.6,70,30.01,6.2,SSE,3.5,-,N/A,,Scattered Clouds,160,2012-10-14 03:00:00
11:00 AM,82.4,71.6,70,29.98,6.2,SSW,4.6,-,N/A,,Scattered Clouds,200,2012-10-14 04:00:00
11:30 AM,82.4,71.6,70,29.98,6.2,SSW,4.6,-,N/A,,Scattered Clouds,210,2012-10-14 04:30:00
12:00 PM,84.2,69.8,62,29.95,6.2,South,5.8,-,N/A,,Scattered Clouds,190,2012-10-14 05:00:00
12:30 PM,86.0,69.8,58,29.92,6.2,SSW,4.6,-,N/A,,Scattered Clouds,200,2012-10-14 05:30:00
1:00 PM,90,73,48,29.83,6,Calm,Calm,,,,Scattered Clouds,,2012-10-14 06:00:00
1:00 PM,87.8,69.8,55,29.92,6.2,South,4.6,-,N/A,,Scattered Clouds,190,2012-10-14 06:00:00
1:30 PM,89.6,68.0,49,29.89,6.2,South,6.9,-,N/A,,Scattered Clouds,190,2012-10-14 06:30:00
2:00 PM,87.8,68.0,52,29.86,6.2,SSW,8.1,-,N/A,,Scattered Clouds,200,2012-10-14 07:00:00
2:30 PM,89.6,68.0,49,29.86,6.2,South,6.9,-,N/A,,Scattered Clouds,190,2012-10-14 07:30:00
3:00 PM,89.6,68.0,49,29.86,6.2,South,4.6,-,N/A,,Scattered Clouds,180,2012-10-14 08:00:00
3:30 PM,89.6,68.0,49,29.83,6.2,SSW,6.9,-,N/A,,Scattered Clouds,200,2012-10-14 08:30:00
4:00 PM,89.6,66.2,46,29.83,6.2,South,4.6,-,N/A,,Scattered Clouds,170,2012-10-14 09:00:00
4:30 PM,89.6,68.0,49,29.83,6.2,SE,4.6,-,N/A,,Partly Cloudy,140,2012-10-14 09:30:00
5:00 PM,89.6,69.8,52,29.86,6.2,SE,5.8,-,N/A,,Scattered Clouds,140,2012-10-14 10:00:00
5:30 PM,87.8,69.8,55,29.83,6.2,SE,4.6,-,N/A,,Partly Cloudy,140,2012-10-14 10:30:00
6:00 PM,87.8,69.8,55,29.86,6.2,SSE,3.5,-,N/A,,Scattered Clouds,150,2012-10-14 11:00:00
6:30 PM,84.2,71.6,66,29.86,6.2,West,3.5,-,N/A,,Scattered Clouds,270,2012-10-14 11:30:00
7:00 PM,85,74,62,29.81,6,Calm,Calm,,,,Scattered Clouds,,2012-10-14 12:00:00
7:00 PM,84.2,71.6,66,29.89,6.2,West,2.3,-,N/A,,Scattered Clouds,280,2012-10-14 12:00:00
7:30 PM,82.4,71.6,70,29.89,6.2,WSW,2.3,-,N/A,,Partly Cloudy,240,2012-10-14 12:30:00
8:00 PM,80.6,71.6,74,29.92,6.2,NW,2.3,-,N/A,,Partly Cloudy,320,2012-10-14 13:00:00
8:30 PM,80.6,71.6,74,29.92,6.2,NW,2.3,-,N/A,,Partly Cloudy,310,2012-10-14 13:30:00
9:00 PM,80.6,73.4,79,29.95,6.2,Calm,Calm,-,N/A,,Partly Cloudy,0,2012-10-14 14:00:00
9:30 PM,80.6,73.4,79,29.95,6.2,Calm,Calm,-,N/A,,Partly Cloudy,0,2012-10-14 14:30:00
10:00 PM,78.8,73.4,83,29.95,6.2,SW,2.3,-,N/A,,Partly Cloudy,230,2012-10-14 15:00:00
10:30 PM,80.6,73.4,79,29.95,6.2,SE,2.3,-,N/A,,Partly Cloudy,140,2012-10-14 15:30:00
11:00 PM,78.8,73.4,83,29.95,6.2,South,2.3,-,N/A,,Partly Cloudy,180,2012-10-14 16:00:00
11:30 PM,78.8,73.4,83,29.95,6.2,Calm,Calm,-,N/A,,Partly Cloudy,0,2012-10-14 16:30:00